Даркылах

Россия / Республика Саха (Якутия)     60°58′22″N   130°22′05″E
темп.,
°C
ветер,
м/с
пор.,
м/с
влажн.,
%
обл.,
%
осадки,
мм/ч
давл.,
гПа
погр.,
м
27 февраля, сб
сб2700:00−30вюв12990 0.0 103119
03:00−30юв229846 0.0 103020
06:00−31юв229754 0.0 102967
09:00−29юв269677 0.0 1028188
12:00−23юв259578 0.0 1026272
15:00−22в359390 0.0 1021390
18:00−24в2596100 0.0 1021139
21:00−25всв2696100 0.0 1018231
28 февраля, вс
вс2800:00−25ссв2497100 0.0 1017148
03:00−27сз2398100 0.0 1015124
06:00−28сз3697100 0.0 1017286
09:00−27сз3897100 0.2 1018442
12:00−24зсз4894100 0.4 1021781
15:00−25з5893100 0.8 1022854
18:00−26зсз4996100 0.2 1024693
21:00−27зсз3995100 0.4 1026687
1 марта, пн
пн100:00−27зсз3995100 0.1 1026694
03:00−27з3896100 0.2 1026678
06:00−28з3896100 0.1 1027597
09:00−28зсз4793100 0.2 1027704
12:00−26зсз4689100 0.1 1027945
15:00−25зсз4688100 0.2 10261018
18:00−27зсз2697100 0.1 1027221
21:00−29з2799100 0.1 1027246
2 марта, вт
вт200:00−31з239998 0.0 102737
03:00−33з1210097 0.1 102719
06:00−34зюз22100100 0.0 102819
09:00−32зюз2498100 0.0 1027133
12:00−27зсз249198 0.0 1026580
15:00−26зсз238899 0.0 1026735
18:00−30сз1197100 0.0 102519
21:00−32юз0098100 0.0 102619
3 марта, ср
ср300:00−32юз1196100 0.0 102519
03:00−32з0096100 0.0 102519
06:00−33сз0096100 0.0 102419
09:00−31сз0096100 0.0 102466
12:00−26ссз1190100 0.0 1022441
15:00−26ссз2291100 0.1 1020591
18:00−29ссз2298100 0.1 101960
21:00−30зсз1299100 0.1 101927